Regional Weather Roundup
Issued by NWS Green Bay, WI

Home | Current Version | Previous Version | Text Only | Print | Product List | Glossary On
Versions: 1 2 3 4 5 6 7 8 9 10 11 12 13 14 15 16 17 18 19 20 21 22 23 24 25 26 27 28 29 30 31 32 33 34 35 36 37 38 39 40 41 42 43 44 45 46 47 48 49 50
000
ASUS43 KGRB 191011
RWRGRB

NORTH-CENTRAL AND NORTHEAST WISCONSIN REGIONAL WEATHER ROUNDUP
NATIONAL WEATHER SERVICE GREEN BAY WI
500 AM CDT TUE SEP 19 2017

WIZ005-009-010>012-018-019-191100-
NORTH CENTRAL WISCONSIN

CITY           SKY/WX    TMP DP  RH WIND       PRES   REMARKS
IRONWOOD       CLOUDY    57  51  80 E8        30.01S
MANITOWISH WTR CLOUDY    55  54  96 E3        30.02S
ARBOR VITAE    CLOUDY    57  54  89 SE3       30.02S
EAGLE RIVER    CLOUDY    54  50  85 SE3       30.03S
LAND O LAKES   CLOUDY    54  51  90 CALM      30.05S
RHINELANDER    CLOUDY    52  52 100 E5        30.03S
PHILLIPS       MOCLDY    54  53  97 CALM      30.00S
ANTIGO         CLOUDY    54  51  90 E8        30.03S
TOMAHAWK         N/A     53  49  89 CALM      30.02S
MERRILL        CLEAR     52  52 100 E3        30.01F
$$

WIZ013-073-191100-
NORTHEAST WISCONSIN

CITY           SKY/WX    TMP DP  RH WIND       PRES   REMARKS
IRON MOUNTAIN  CLEAR     54  49  83 CALM      30.03S
MARINETTE      CLOUDY    60  57  89 E9        30.02F
OCONTO         CLOUDY    60  57  91 NE5       30.00F
$$

WIZ017-030-035>037-045-191100-
CENTRAL WISCONSIN

CITY           SKY/WX    TMP DP  RH WIND       PRES   REMARKS
MEDFORD        CLEAR     52  51  94 E5        30.00S
WAUSAU         CLOUDY    54  52  93 E9        29.99F
MOSINEE        CLOUDY    54  52  94 E6        30.01S
MARSHFIELD     CLOUDY    55  51  86 E8        29.99S
WISC RAPIDS    CLOUDY    58  52  80 E5        30.00S
STEVENS POINT  CLOUDY    54  53  97 E7        30.01S
WAUPACA        CLOUDY    59  54  83 NE3       30.00F
SHAWANO        CLOUDY    60  56  85 N7        30.01S
CLINTONVILLE   CLOUDY    57  52  82 NE3       30.01S
WAUTOMA        CLOUDY    57  53  86 E5        30.00S
$$

WIZ038-039-048-051-191100-
FOX VALLEY

CITY           SKY/WX    TMP DP  RH WIND       PRES   REMARKS
NWS GREEN BAY  MOCLDY    60  59  96 NE9       30.00S
APPLETON       CLOUDY    57  55  94 N5        29.99S
OSHKOSH        CLOUDY    61  58  90 NE6       29.99S
FOND DU LAC    PTCLDY    54  52  93 CALM      29.98F
$$

WIZ022-050-052-191100-
EAST CENTRAL WISCONSIN

CITY           SKY/WX    TMP DP  RH WIND       PRES   REMARKS
EPHRAIM        FAIR      58  55  87 E3        30.02S
WASHINGTON ISL NOT AVBL
STURGEON BAY   CLOUDY    60  57  89 NE5       30.03R
MANITOWOC      CLOUDY    58  56  93 N3        30.00S
SHEBOYGAN      CLOUDY    59  58  96 NE5       29.99R
$$

LMZ563-521-522-541>543-191100-
LAKESHORE

STATION/POSITION TIME  TEMP    WIND        PRES    VSBY  WAVE
                       AIR SEA DIR/SP/G                  HT/PER
                 (UTC) (F)     (DEG/KT/KT) (MB)    (MI)  (FT/S)
SHEBOYGAN LKSHOR 1000   63      10/  5/  6 1015.0R
KEWAUNEE LKSHORE 0948   60      10/  3/  6 1015.1R
NORTHPORT PIER   0940   64      80/ 11/ 15 1016.9S
N MID LAKE BUOY  0950   63 64   90/ 14/ 17 1017.7F         2/ 4
S GREEN BAY BUOY 1000   64 66   80/ 16/ 17 1015.9
SISTER BAY LKSHO 1004   61     130/  6/  9   N/A
MENOMINEE LKSHOR 0948   64      40/ 16/ 18 1016.0F
$$




USA.gov is the U.S. government's official web portal to all federal, state and local government web resources and services.